Mankato, MN

5:43 AM CST on December 11, 2019 (GMT -0600)
Mankato Regional

Weather History for KMKT - November, 2019

Change the Weather History Date:

Wednesday, November 13, 2019

  Actual Average Record
Temperature  
Mean Temperature 26 °F -  
Max Temperature 32 °F 41 °F 75 °F (1999)
Min Temperature 19 °F 26 °F 3 °F (2018)
Degree Days  
Heating Degree Days 40    
Moisture  
Dew Point 22 °F    
Average Humidity 83    
Maximum Humidity 96    
Minimum Humidity 66    
Precipitation  
Precipitation 0.00 in - - ()
Sea Level Pressure  
Sea Level Pressure 29.99 in    
Wind  
Wind Speed 10 mph ()    
Max Wind Speed 17 mph    
Max Gust Speed 25 mph    
Visibility 8.2 miles    
Events Snow    
Averages and records for this station are not official NWS values.
T = Trace of Precipitation, MM = Missing Value Source: Averaged Metar Reports

Daily Weather History Graph

Daily Weather History Graph

Search for Another Location

Airport or City:

Astronomy

Nov. 13, 2019 Rise Set
Actual Time 7:08 AM CST 4:51 PM CST
Civil Twilight 6:37 AM CST 5:22 PM CST
Nautical Twilight 6:02 AM CST 5:57 PM CST
Astronomical Twilight 5:28 AM CST 6:31 PM CST
Moon 5:53 PM CST (11/13) 8:02 AM CST (11/13)
Length of Visible Light 10h 44m
Length of Day
9h 42m
Full, 99% of the Moon is Illuminated
Nov 13
Full
Nov 19
Last Quarter
Nov 26
New
Dec 4
First Quarter
Dec 11
Full

Hourly Weather History & Observations

Time (CST) Temp. Windchill Dew Point Humidity Pressure Visibility Wind Dir Wind Speed Gust Speed Precip Events Conditions
12:56 AM 19.0 °F 4.0 °F 10.9 °F 71% 30.01 in 10.0 mi South 17.3 mph 25.3 mph N/A   Scattered Clouds
1:56 AM 19.0 °F 5.0 °F 12.0 °F 74% 29.98 in 10.0 mi South 15.0 mph 23.0 mph N/A   Mostly Cloudy
2:56 AM 19.9 °F 6.7 °F 12.0 °F 71% 29.97 in 10.0 mi South 13.8 mph 23.0 mph N/A   Overcast
3:56 AM 19.9 °F 7.9 °F 12.9 °F 74% 29.95 in 10.0 mi South 11.5 mph 23.0 mph N/A   Overcast
4:56 AM 19.9 °F 7.9 °F 14.0 °F 78% 29.94 in 10.0 mi South 11.5 mph 18.4 mph N/A   Overcast
5:56 AM 21.0 °F 9.9 °F 15.1 °F 78% 29.94 in 10.0 mi South 10.4 mph 17.3 mph N/A   Overcast
6:56 AM 21.9 °F 11.0 °F 16.0 °F 78% 29.92 in 10.0 mi South 10.4 mph - N/A   Clear
7:56 AM 23.0 °F 11.7 °F 17.1 °F 78% 29.93 in 10.0 mi South 11.5 mph - N/A   Overcast
8:56 AM 24.1 °F 14.4 °F 18.0 °F 77% 29.95 in 10.0 mi South 9.2 mph - N/A   Overcast
9:56 AM 27.0 °F 18.7 °F 19.0 °F 72% 29.96 in 10.0 mi SSW 8.1 mph - N/A   Overcast
10:56 AM 28.9 °F 21.1 °F 21.0 °F 72% 29.96 in 10.0 mi SSW 8.1 mph - 0.00 in   Overcast
11:21 AM 30.2 °F 21.9 °F 21.2 °F 69% 29.91 in 10.0 mi WSW 9.2 mph - N/A   Overcast
11:56 AM 32.0 °F 24.2 °F 21.9 °F 66% 29.95 in 10.0 mi West 9.2 mph - N/A   Overcast
12:56 PM 32.0 °F 24.2 °F 24.1 °F 73% 29.95 in 6.0 mi WNW 9.2 mph - 0.00 in Snow Light Snow
1:56 PM 30.9 °F 23.5 °F 28.0 °F 89% 29.96 in 3.0 mi WNW 8.1 mph - 0.00 in Snow Light Snow
2:17 PM 30.2 °F 23.4 °F 28.4 °F 93% 29.91 in 2.0 mi NW 6.9 mph - 0.00 in Snow Light Snow
2:26 PM 30.2 °F 24.3 °F 28.4 °F 93% 29.91 in 2.0 mi NW 5.8 mph - 0.00 in Snow Light Snow
2:39 PM 30.2 °F 22.6 °F 28.4 °F 93% 29.92 in 1.8 mi NW 8.1 mph - 0.00 in Snow Light Snow
2:45 PM 30.2 °F 21.9 °F 28.4 °F 93% 29.92 in 2.0 mi NW 9.2 mph - 0.00 in Snow Light Snow
2:56 PM 30.0 °F 22.4 °F 28.9 °F 96% 29.98 in 2.5 mi NW 8.1 mph - 0.00 in Snow Light Snow
3:04 PM 30.2 °F 20.8 °F 28.4 °F 93% 29.93 in 2.5 mi NW 11.5 mph - 0.00 in Snow Light Snow
3:11 PM 30.2 °F 20.8 °F 28.4 °F 93% 29.93 in 3.0 mi NW 11.5 mph - 0.00 in Snow Light Snow
3:39 PM 30.2 °F 22.6 °F 28.4 °F 93% 29.94 in 9.0 mi NW 8.1 mph - 0.00 in   Overcast
3:56 PM 30.0 °F 20.5 °F 28.0 °F 92% 30.01 in 10.0 mi NW 11.5 mph - 0.00 in   Overcast
4:19 PM 30.2 °F 20.8 °F 26.6 °F 86% 29.96 in 10.0 mi NW 11.5 mph - N/A   Overcast
4:56 PM 28.9 °F 19.8 °F 26.1 °F 89% 30.02 in 10.0 mi NW 10.4 mph - N/A   Overcast
5:29 PM 28.4 °F 19.1 °F 26.6 °F 93% 29.98 in 10.0 mi NW 10.4 mph - N/A   Overcast
5:38 PM 28.4 °F 17.5 °F 24.8 °F 86% 29.98 in 10.0 mi NW 13.8 mph - N/A   Overcast
5:56 PM 28.9 °F 18.6 °F 25.0 °F 85% 30.05 in 10.0 mi NW 12.7 mph - N/A   Overcast
6:56 PM 28.9 °F 19.8 °F 24.1 °F 82% 30.08 in 10.0 mi NNW 10.4 mph - N/A   Overcast
7:56 PM 28.0 °F 18.6 °F 23.0 °F 81% 30.09 in 10.0 mi NW 10.4 mph - N/A   Overcast
8:56 PM 27.0 °F 16.7 °F 21.9 °F 81% 30.12 in 10.0 mi NW 11.5 mph - N/A   Overcast
9:56 PM 24.1 °F 15.2 °F 19.9 °F 84% 30.14 in 10.0 mi NW 8.1 mph - N/A   Scattered Clouds
10:56 PM 21.0 °F 9.9 °F 18.0 °F 88% 30.14 in 10.0 mi NW 10.4 mph - N/A   Scattered Clouds
11:52 PM 19.4 °F 8.6 °F 17.6 °F 93% 30.11 in 10.0 mi WNW 9.2 mph - N/A   Mostly Cloudy
11:56 PM 19.9 °F 7.9 °F 17.1 °F 89% 30.16 in 10.0 mi WNW 11.5 mph - N/A   Mostly Cloudy